Retour au catalogue

DELTA 1 DEB

ActifSSO
NORAD 40757·DEBRIS·🇺🇸 United States

Lancé Jul 29, 1976 depuis Vandenberg Space Force Base

Loading…

Prochains Passages (prochaines 24 heures)

TLE

FraisSource: Space-Track

Époque: Sep 13, 2026, 03:15 UTC

1 40757U 76077GA  26256.13591511  .00000011  00000-0  35185-3 0  9994
2 40757 101.9209 230.7717 0004845 347.3407  12.7543 12.54852757587832

Suivez DELTA 1 DEB en temps réel avec AllMySat

Download on the App Store